CAPE
0 0 1 0 1 3 2 5 1 7 1 4 8 5 0 46 42 39 1 0 7 2 2 2 8 6 14 5 7 0 0 0 0 6 2 2 1 2 0 1 0 0 1
0 0 0 1 0 1 0 0 0 0 1 1 3 2 6 39 17 12 0 0 4 1 1 2 5 3 1 0 0 0 0 0 0 11 7 3 3 1 0 1 1 0 1
0 0 0 0 0 0 0 0 0 1 2 2 2 4 1 1 3 0 0 0 2 1 7 1 0 0 0 0 0 1 4 4 4 13 5 1 1 0 0 1 0 0 1
0 0 0 0 0 1 0 1 1 2 3 3 3 4 0 1 0 0 0 0 0 1 0 0 2 1 2 4 5 8 9 9 10 7 3 3 2 1 0 0 0 0 0
1 1 0 0 0 1 1 0 1 2 2 3 3 3 1 1 0 0 1 1 9 6 9 12 12 7 6 6 6 7 8 8 5 2 4 4 2 0 1 0 0 0 0
1 2 1 2 2 2 1 1 2 2 2 2 2 0 1 1 5 3 4 5 6 13 11 4 3 2 3 3 1 1 0 1 3 0 1 1 5 4 1 0 0 0 0
2 2 2 2 2 2 1 2 2 1 1 1 1 0 1 3 6 5 4 2 4 3 3 3 3 2 2 2 2 1 1 1 0 1 1 3 3 0 0 0 0 0 0
2 1 2 2 2 1 1 1 0 1 1 0 0 1 0 1 2 2 2 3 3 3 2 2 4 3 3 0 0 1 1 1 2 1 0 0 0 0 0 0 0 0 0
2 2 2 1 1 1 0 0 1 1 0 0 0 0 0 1 3 3 3 4 2 3 4 4 4 4 7 2 2 3 2 2 0 0 0 0 0 0 0 0 0 0 0
2 2 0 0 0 0 0 1 1 0 1 1 0 0 0 0 4 2 1 3 3 3 2 2 2 2 4 0 0 0 0 0 0 0 0 0 0 0 0 0 0 0 0
0 0 0 0 0 0 0 0 0 0 0 0 1 0 0 0 2 3 1 1 2 1 1 1 0 1 0 0 0 0 0 0 0 0 0 0 0 0 0 0 0 0 0
0 0 0 0 0 0 0 0 0 0 0 0 0 0 0 0 1 2 2 2 0 0 0 0 0 0 0 0 0 0 0 0 0 0 0 0 0 0 0 0 0 0 0
0 0 0 0 0 0 0 0 1 0 0 0 0 0 0 0 0 2 3 3 1 1 0 1 0 0 0 0 0 0 0 0 0 0 0 0 0 0 0 0 0 0 0
0 0 0 1 0 0 0 0 0 1 0 0 0 0 0 2 2 1 0 0 0 0 0 0 0 0 0 0 0 0 0 0 0 0 0 0 0 0 0 0 0 0 0
0 0 0 1 1 1 1 0 0 0 1 1 2 1 0 0 2 1 0 0 0 0 0 0 0 0 0 0 0 0 0 0 0 0 0 0 0 0 0 0 0 0 0
0 0 0 0 0 1 1 2 1 1 2 3 1 0 2 3 3 3 2 0 0 0 0 0 0 0 0 0 0 0 0 0 0 0 0 0 0 0 0 0 0 0 0
0 0 0 0 0 0 0 0 1 2 3 2 3 0 0 2 2 1 0 0 0 0 0 0 0 0 0 0 0 0 0 0 0 0 0 0 0 0 0 0 0 0 0
0 0 0 0 0 0 0 0 1 0 0 1 2 0 0 1 1 0 0 0 0 0 0 0 0 0 0 0 0 0 0 0 0 0 0 0 0 0 0 0 0 0 0
0 0 0 0 0 0 0 0 0 0 0 0 0 0 0 1 2 1 0 0 0 0 0 0 0 0 0 0 0 0 0 0 0 0 0 0 0 0 0 0 0 0 0
0 0 0 0 0 0 0 0 0 0 0 0 0 0 0 0 0 0 0 0 0 0 0 0 0 0 0 0 0 0 0 0 0 0 0 0 0 0 0 0 0 0 0
0 0 0 0 0 0 0 0 0 0 0 0 0 0 0 0 0 0 0 0 0 0 0 0 0 0 0 0 0 0 0 0 0 0 0 0 0 0 0 0 0 0 0
0 0 0 0 0 0 0 0 0 0 0 0 0 0 1 0 0 0 0 0 0 0 0 0 0 0 0 0 0 0 0 0 0 0 0 0 0 0 0 0 0 0 0
0 0 0 0 0 0 0 0 0 0 0 0 0 0 0 0 0 0 0 0 0 0 0 0 0 0 0 0 0 0 0 0 0 0 0 0 0 0 0 0 0 0 0
0 0 0 0 0 0 0 0 0 0 0 0 0 0 0 0 0 0 0 0 0 0 0 0 0 0 0 0 0 0 0 0 0 0 0 0 0 0 0 0 0 0 0
0 0 0 0 0 0 0 0 0 0 0 0 0 0 0 0 0 0 0 0 0 0 0 0 0 0 0 0 0 0 0 0 0 0 0 0 0 0 0 0 0 0 0
0 0 0 0 0 0 0 0 0 0 0 0 0 0 0 0 0 0 0 0 0 0 0 0 0 0 0 0 0 0 0 0 0 0 0 0 0 0 0 0 0 0 0
CIN
0 0 -1 -2 -3 -1 -2 -1 -2 -2 0 0 0 0 0 0 0 0 0 0 0 -29 -15 -1 -1 -2 -3 -7 -20 0 0 0 0 0 0 0 0 0 0 0 0 0 0
0 0 0 -1 0 -1 0 0 0 0 0 0 0 0 -7 0 0 0 0 0 0 0 -2 -7 -2 -8 -15 0 0 -3 0 0 0 0 0 0 0 0 0 0 0 0 0
0 0 0 0 0 -2 0 0 0 0 0 0 0 0 0 0 -4 0 0 0 0 -3 -22 -7 -1 0 0 0 0 0 0 0 0 0 0 0 0 0 0 0 0 0 0
0 0 0 0 0 -1 0 -1 0 0 0 0 0 0 0 0 0 0 0 0 0 0 0 0 0 0 0 0 0 0 0 0 0 0 0 0 0 0 0 0 0 0 0
0 0 0 0 -1 0 0 0 0 0 0 0 0 0 0 0 0 0 0 0 0 0 0 0 0 0 0 0 0 0 0 0 0 0 0 0 0 0 0 0 0 0 0
0 0 0 0 0 0 0 0 0 0 0 0 0 0 0 0 0 0 0 0 0 0 0 0 0 0 0 0 0 0 0 0 0 0 0 0 0 0 0 0 0 0 0
0 0 0 0 0 0 0 0 0 0 0 0 0 0 0 0 0 0 0 0 0 0 0 0 0 0 0 0 0 0 0 0 0 0 0 0 0 0 0 0 0 0 0
0 0 0 0 0 0 0 0 0 0 0 0 0 0 0 0 0 0 0 0 0 0 0 0 0 0 0 0 0 0 0 0 0 0 0 0 0 0 0 0 0 0 0
0 0 0 0 0 0 0 0 0 0 0 0 0 0 0 0 0 0 0 0 0 0 0 0 0 0 0 0 0 0 0 0 0 0 0 0 0 0 0 0 0 0 0
0 0 0 0 0 0 0 0 0 0 0 0 0 0 0 0 0 0 0 0 0 0 0 0 0 0 0 0 0 0 0 0 0 0 0 0 0 0 0 0 0 0 0
0 0 0 0 0 0 0 0 0 0 0 0 0 0 0 0 0 0 0 0 0 0 0 0 0 0 0 0 0 0 0 0 0 0 0 0 0 0 0 0 0 0 0
0 0 0 0 0 0 0 0 0 0 0 0 0 0 0 0 0 0 0 0 0 0 0 0 0 0 0 0 0 0 0 0 0 0 0 0 0 0 0 0 0 0 0
0 0 0 0 0 0 0 0 0 0 0 0 0 0 0 0 0 0 0 0 0 0 0 0 0 0 0 0 0 0 0 0 0 0 0 0 0 0 0 0 0 0 0
0 0 0 0 0 0 0 0 0 0 0 0 0 0 0 0 0 0 0 0 0 0 0 0 0 0 0 0 0 0 0 0 0 0 0 0 0 0 0 0 0 0 0
0 0 0 0 0 0 0 0 0 0 0 0 0 0 0 0 0 0 0 0 0 0 0 0 0 0 0 0 0 0 0 0 0 0 0 0 0 0 0 0 0 0 0
0 0 0 0 0 0 0 0 0 0 0 0 0 0 0 0 0 0 0 0 0 0 0 0 0 0 0 0 0 0 0 0 0 0 0 0 0 0 0 0 0 0 0
0 0 0 0 0 0 0 0 0 0 0 0 0 0 0 0 0 0 0 0 0 0 0 0 0 0 0 0 0 0 0 0 0 0 0 0 0 0 0 0 0 0 0
0 0 0 0 0 0 0 0 0 0 0 0 0 0 0 0 0 0 0 0 0 0 0 0 0 0 0 0 0 0 0 0 0 0 0 0 0 0 0 0 0 0 0
0 0 0 0 0 0 0 0 0 0 0 0 -1 0 0 0 0 0 0 0 0 0 0 0 0 0 0 0 0 0 0 0 0 0 0 0 0 0 0 0 0 0 0
0 0 0 0 0 0 0 0 0 0 0 0 0 0 0 0 0 0 0 0 0 0 0 0 0 0 0 0 0 0 0 0 0 0 0 0 0 0 0 0 0 0 0
0 0 0 0 0 0 0 0 0 0 0 0 0 0 0 0 0 0 0 0 0 0 0 0 0 0 0 0 0 0 0 0 0 0 0 0 0 0 0 0 0 0 0
0 0 0 0 0 0 0 0 0 0 0 0 0 0 0 0 0 0 0 0 0 0 0 0 0 0 0 0 0 0 0 0 0 0 0 0 0 0 0 0 0 0 0
0 0 0 0 0 0 0 0 0 0 0 0 0 0 0 0 0 0 0 0 0 0 0 0 0 0 0 0 0 0 0 0 0 0 0 0 0 0 0 0 0 0 0
0 0 0 0 0 0 0 0 0 0 0 0 0 0 0 0 0 0 0 0 0 0 0 0 0 0 0 0 0 0 0 0 0 0 0 0 0 0 0 0 0 0 0
0 0 0 0 0 0 0 0 0 0 0 0 0 0 0 0 0 0 0 0 0 0 0 0 0 0 0 0 0 0 0 0 0 0 0 0 0 0 0 0 0 0 0
0 0 0 0 0 0 0 0 0 0 0 0 0 0 0 0 0 0 0 0 0 0 0 0 0 0 0 0 0 0 0 0 0 0 0 0 0 0 0 0 0 0 0
Wind_Speed
40 42 42 42 41 37 39 43 46 45 46 49 49 50 51 54 52 49 46 43 40 39 38 37 38 35 36 36 32 30 29 28 28 26 22 16 15 14 11 11 11 13 13
41 43 43 42 38 34 37 42 43 45 44 47 49 48 50 50 51 49 48 46 42 44 38 36 37 36 34 33 32 30 29 28 27 24 19 18 15 12 11 11 13 12 11
41 44 42 37 33 34 41 41 42 42 42 44 46 48 48 50 50 44 44 46 44 41 34 38 36 34 34 34 32 30 27 26 22 21 16 14 13 10 10 12 11 11 9
39 41 39 33 29 30 39 39 40 41 42 42 42 45 47 47 38 37 34 29 30 31 31 29 33 32 33 30 29 27 24 21 19 17 15 14 14 10 7 9 10 10 12
37 38 33 27 16 23 31 37 39 40 40 39 39 40 39 35 31 29 27 23 21 20 20 21 24 24 22 23 23 22 19 19 20 18 17 14 12 11 8 7 6 8 10
36 35 29 21 17 22 28 33 35 35 33 34 36 37 30 27 20 19 18 18 18 19 14 10 11 12 16 13 13 13 14 14 12 12 11 11 8 5 7 5 4 8 13
35 32 24 15 13 20 24 30 23 24 26 29 28 23 18 17 9 11 10 11 9 7 9 11 8 9 10 11 8 6 5 3 6 6 6 4 2 2 1 2 5 10 13
32 28 27 28 15 22 23 18 20 21 26 27 19 11 8 7 3 5 6 7 7 7 8 9 8 9 9 10 10 8 6 4 3 3 4 4 4 3 3 4 5 8 11
30 29 26 23 10 19 16 15 16 19 26 14 6 8 4 4 9 6 11 15 14 9 10 8 9 11 13 14 12 11 9 8 10 11 10 9 8 7 7 6 7 8 14
31 29 27 22 16 12 9 5 6 15 8 2 4 7 5 10 11 8 14 18 20 16 15 16 15 16 17 17 17 17 14 12 11 9 8 10 10 11 11 12 10 12 14
30 29 27 27 16 7 8 12 8 9 5 2 9 11 11 11 15 14 13 15 14 14 15 14 11 13 14 14 15 14 15 11 10 9 10 11 12 13 14 15 16 15 15
30 30 29 27 22 5 21 18 11 7 9 9 13 16 14 15 20 20 17 15 12 15 14 14 12 13 14 14 14 15 14 12 12 11 11 12 13 14 16 17 18 19 19
32 34 29 33 8 15 8 6 7 10 11 10 7 8 8 16 18 22 21 18 17 15 17 20 19 19 19 17 17 16 15 14 13 13 13 14 14 15 16 17 18 19 19
29 32 31 32 34 16 9 6 13 11 9 12 13 10 10 14 19 19 17 16 18 18 20 20 22 21 19 18 16 14 14 14 14 14 14 14 15 16 17 17 18 18 20
25 31 34 32 31 30 16 8 8 16 6 13 8 11 13 12 12 14 13 16 19 22 22 21 21 19 18 17 15 15 15 16 15 15 15 16 16 17 18 18 18 19 20
26 26 30 30 15 29 33 32 37 21 18 17 21 20 13 13 13 15 17 16 13 10 14 17 16 14 14 14 16 17 17 16 16 16 16 16 16 16 17 18 19 19 20
20 20 21 24 26 16 4 29 27 31 33 26 22 20 14 14 16 17 14 13 16 16 16 16 15 15 17 17 16 16 16 17 16 16 16 16 16 17 18 18 19 20 21
14 16 17 18 21 23 23 24 18 22 26 24 24 22 23 24 24 22 18 16 13 13 16 18 17 16 15 15 16 16 16 16 16 16 17 17 16 17 18 19 20 20 22
11 13 15 17 18 19 20 21 21 20 20 20 20 21 21 21 21 20 17 16 15 15 14 14 14 14 15 16 15 15 15 16 16 16 16 16 17 17 19 18 19 21 22
7 9 12 13 15 16 17 18 18 18 17 17 16 16 15 15 14 13 13 13 13 13 12 13 13 14 14 15 16 16 16 16 16 16 17 17 17 17 17 17 19 22 23
4 6 7 9 11 12 13 14 14 14 14 13 12 12 11 11 10 9 10 11 10 10 10 11 12 13 13 13 13 13 13 14 15 15 14 14 15 16 16 17 19 21 23
4 3 4 4 6 7 8 9 10 11 11 10 10 9 8 8 8 8 8 8 7 7 7 8 8 9 10 11 12 12 13 14 13 12 13 13 14 15 15 18 20 21 24
8 5 4 2 2 3 4 5 7 8 9 10 9 9 8 7 8 10 10 11 8 6 6 7 8 9 10 11 10 11 11 11 10 10 12 13 14 14 15 19 20 23 26
13 12 8 4 3 2 2 2 3 3 7 9 10 12 11 9 8 10 10 9 8 6 6 7 8 10 10 11 11 12 13 12 11 11 12 12 13 15 17 18 20 22 24
10 12 12 11 9 7 4 1 2 6 8 9 8 7 7 7 7 9 9 9 9 8 9 10 11 11 12 13 13 13 12 12 12 12 12 12 13 14 15 17 20 23 26
8 9 10 8 8 6 4 3 2 2 3 5 7 8 9 10 11 12 12 11 12 13 13 14 14 14 13 12 12 11 11 12 11 10 11 12 13 14 16 18 22 25 27
Wind_Direction
342 339 335 331 329 322 314 305 295 289 280 271 271 271 267 259 261 261 265 268 242 240 238 237 239 240 242 241 245 244 247 252 259 271 269 255 259 266 272 286 306 311 317
345 341 338 336 334 328 317 305 298 288 283 277 271 269 266 265 267 265 266 264 261 236 235 235 238 239 240 239 241 243 246 251 257 252 253 256 255 261 268 281 301 313 317
346 346 344 343 341 333 316 305 295 293 286 284 274 269 270 267 260 263 267 267 252 233 236 235 235 236 239 239 240 244 247 251 249 252 240 248 251 253 269 291 307 316 329
348 348 349 349 348 342 302 291 294 298 292 288 284 275 267 258 261 262 269 269 247 238 241 236 236 235 236 236 237 240 241 239 236 235 232 244 254 247 275 285 298 306 315
351 351 352 353 349 282 284 291 295 296 299 294 290 284 274 262 267 265 268 259 241 231 228 240 233 233 232 230 234 235 229 232 240 236 240 231 231 246 262 279 291 316 326
356 356 358 357 292 286 287 291 291 290 282 285 287 290 270 264 277 261 264 250 238 215 210 233 209 208 217 209 215 233 234 220 217 201 213 215 236 258 270 277 305 305 315
4 5 6 358 305 291 291 294 283 281 279 277 279 287 267 261 282 247 247 223 209 188 180 181 188 185 164 171 152 137 140 138 164 170 183 201 188 263 266 302 308 318 319
13 15 12 6 1 296 295 287 288 291 300 300 280 299 278 245 51 181 191 158 128 120 132 149 159 146 144 134 128 115 105 88 88 91 82 67 58 46 1 358 352 343 348
18 19 20 21 323 301 297 295 297 303 320 303 273 352 19 61 88 102 110 104 106 113 99 116 110 104 106 106 107 108 97 79 72 76 70 63 53 37 32 34 351 343 332
22 24 23 30 311 305 307 312 318 312 313 280 6 22 52 73 90 101 94 94 92 95 97 91 88 94 91 90 90 94 94 89 88 77 57 44 33 25 14 1 1 344 343
28 31 34 37 322 328 52 67 328 334 350 76 34 42 63 68 74 80 85 87 96 102 97 93 86 82 79 77 79 81 86 86 75 65 52 39 30 21 11 9 8 359 352
38 41 41 45 21 357 64 69 346 1 114 111 47 47 55 64 63 63 75 82 97 95 92 90 85 77 75 76 75 77 76 67 58 46 37 28 21 15 13 12 15 12 14
42 42 52 48 6 76 73 50 23 16 23 32 65 102 86 61 65 63 71 82 80 84 85 83 81 74 71 66 65 62 57 52 46 40 33 25 19 23 23 12 14 13 11
51 52 55 60 42 357 5 52 9 19 30 120 127 64 86 70 68 69 72 73 73 72 72 71 71 68 62 57 51 44 37 36 36 36 34 26 21 12 7 6 6 6 3
56 50 48 61 67 21 7 23 46 21 59 43 78 98 90 76 70 67 69 70 70 71 70 68 66 59 55 49 40 37 37 37 34 30 26 22 13 11 6 5 6 -0 355
56 60 55 64 99 78 46 68 58 34 32 40 47 51 54 63 68 70 71 67 65 60 54 56 52 46 40 38 38 39 33 28 20 18 15 15 14 12 8 4 1 358 355
56 61 64 64 68 104 328 46 43 56 59 47 46 46 45 51 58 63 54 50 50 52 52 50 45 40 49 54 45 31 23 20 23 21 20 15 12 9 5 360 356 356 354
66 73 75 76 67 65 69 73 92 39 67 51 57 55 63 74 78 73 54 44 32 27 48 58 58 53 45 36 32 29 27 25 18 13 10 7 7 4 1 357 355 354 352
70 73 79 78 79 74 69 59 55 46 42 47 50 54 70 82 84 79 57 58 57 51 45 45 42 42 36 32 26 23 20 16 13 10 8 5 2 0 358 356 354 353 352
76 74 73 81 77 78 78 70 67 63 63 59 52 56 63 65 69 57 27 13 10 22 36 31 32 32 25 21 17 16 13 11 9 6 3 3 3 2 360 356 354 352 350
84 70 77 74 78 81 73 73 72 73 73 68 64 65 73 71 60 51 33 23 34 32 25 24 24 20 20 19 15 14 10 7 6 4 6 7 8 4 0 355 354 353 351
145 98 67 69 59 61 66 62 53 50 51 52 46 50 61 38 34 25 22 18 25 29 34 27 24 22 21 18 14 10 8 6 7 9 10 10 8 3 -0 356 354 351 350
176 170 152 124 84 56 38 30 27 25 21 20 25 27 21 14 2 355 354 353 1 10 25 14 11 9 9 9 9 7 5 3 5 8 6 4 2 359 356 354 352 349 347
186 185 182 176 159 149 127 75 34 25 0 355 357 352 352 355 354 351 350 354 358 0 4 360 357 357 360 360 358 357 359 3 5 5 8 7 2 358 357 355 353 351 349
197 194 191 188 184 181 175 182 342 343 341 344 352 359 3 360 354 349 348 344 343 344 344 345 345 346 348 350 354 357 1 4 5 9 9 7 3 1 359 356 353 349 347
222 217 213 212 210 209 210 223 244 302 324 335 338 338 339 337 333 330 331 332 333 332 331 334 335 338 343 347 351 355 358 0 3 6 6 3 360 357 354 352 349 347 346